Location: Oakhurst
(33.6448°N, 111.9543°W)
Time: 02:02:34
(UTC+00:00)

CUBESAT XI-V - Visible Passes

Search period start: 26 July 2021 00:00
Search period end: 05 August 2021 00:00
Orbit: 667 x 693 km, 98.1° (Epoch: 25 July)

Date Brightness Start Highest point End Pass type
(mag) Time Alt. Az. Time Alt. Az. Time Alt. Az.
26 Jul ? 09:26:22 36° N 09:26:22 36° N 09:29:06 10° N visible
27 Jul ? 08:24:23 16° NE 08:24:23 16° NE 08:26:27 10° NNE visible
27 Jul ? 10:02:49 22° NW 10:02:49 22° NW 10:04:44 10° NNW visible
28 Jul ? 09:00:49 30° NNE 09:00:49 30° NNE 09:03:28 10° N visible
29 Jul ? 09:37:15 30° NNW 09:37:15 30° NNW 09:39:36 10° NNW visible
30 Jul ? 08:35:15 19° NE 08:35:15 19° NE 08:37:25 10° NNE visible
30 Jul ? 10:13:41 17° NW 10:13:41 17° NW 10:14:59 10° NW visible
31 Jul ? 09:11:41 30° N 09:11:41 30° N 09:14:06 10° N visible
01 Aug ? 08:09:42 11° NE 08:09:42 11° NE 08:10:23 10° NE visible
01 Aug ? 09:48:08 24° NNW 09:48:08 24° NNW 09:50:02 10° NNW visible
02 Aug ? 08:46:08 22° NE 08:46:08 22° NE 08:48:14 10° NNE visible
02 Aug ? 10:24:34 12° NW 10:24:34 12° NW 10:25:07 10° NW visible
03 Aug ? 09:22:35 27° N 09:22:35 27° N 09:24:40 10° N visible
04 Aug ? 08:20:34 14° NE 08:20:34 14° NE 08:21:47 10° NNE visible
04 Aug ? 09:59:01 19° NW 09:59:01 19° NW 10:00:23 10° NNW visible
